Skip Page Navigation
NASA JPL Caltech
NASA Logo - Jet Propulsion Laboratory + View the NASA Portal
+ Near-Earth Object (NEO) Program
Search JPL
JPL Home Earth Solar System Stars & Galaxies Technology
JPL Solar System Dynamics
BODIES ORBITS EPHEMERIDES TOOLS PHYSICAL DATA DISCOVERY FAQ SITE MAP
JPL Small-Body Database Browser
Search: [ help ]  
29214 Apitzsch (1991 TL6)
Classification: Main-belt Asteroid          SPK-ID: 2029214
Ephemeris | Orbit Diagram | Orbital Elements | Physical Parameters | Discovery Circumstances | Close-Approach Data ]

[ hide orbit diagram ]
Orbit Diagram
Note: Make sure you have Java enabled on your browser to see the applet. This applet is provided as a 3D orbit visualization tool. The applet was implemented using 2-body methods, and hence should not be used for determining accurate long-term trajectories (over several years or decades) or planetary encounter circumstances. For accurate long-term ephemerides, please instead use our Horizons system.
Orbit Viewer

Additional Notes: the orbits shown in the applet are color coded. The planets are white lines, and the asteroid/comet is a blue line. The bright white line indicates the portion of the orbit that is above the ecliptic plane, and the darker portion is below the ecliptic plane. Likewise for the asteroid/comet orbit, the light blue indicates the portion above the ecliptic plane, and the dark blue the portion below the ecliptic plane.

Orbit Viewer applet originally written and kindly provided by Osamu Ajiki (AstroArts), and further modified by Ron Baalke (JPL).


Orbital Elements at Epoch 2456400.5 (2013-Apr-18.0) TDB
Reference: JPL 1 (heliocentric ecliptic J2000)
 Element Value Uncertainty (1-sigma)   Units 
e .1449885211333232 7.0003e-08  
a 2.87565223645415 3.4629e-08 AU
q 2.458715671396929 2.0821e-07 AU
i 2.980515573160945 6.9613e-06 deg
node 276.7588179981158 0.00013045 deg
peri 34.47939160326868 0.00013312 deg
M 189.167556306165 3.0723e-05 deg
tp 2457245.722063890077
(2015-Aug-11.22206389)
0.00015735 JED
period 1781.160161507475
4.88
3.2173e-05
8.808e-08
d
yr
n .2021154569813172 3.6509e-09 deg/d
Q 3.292588801511371 3.965e-08 AU
  Orbit Determination Parameters
   # obs. used (total)      777  
   data-arc span      7884 days (21.59 yr)  
   first obs. used      1991-09-15  
   last obs. used      2013-04-16  
   planetary ephem.      DE405  
   SB-pert. ephem.      SB405-CPV-2  
   condition code      0  
   fit RMS      .5732  
   data source      ORB  
   producer      Otto Matic  
   solution date      2013-Apr-29 14:51:21  

Additional Information
 Earth MOID = 1.44497 AU 
 T_jup = 3.279 
[ show covariance matrix ]

Ephemeris | Orbit Diagram | Orbital Elements | Physical Parameters | Discovery Circumstances | Close-Approach Data ]

Physical Parameter Table
Parameter Symbol Value Units Sigma Reference Notes
absolute magnitude H 13.5 mag n/a PDS3 (MPO 16214)  

29214 Apitzsch           Discovered 1991 Oct. 2 by L. D. Schmadel and F. Börngen at Tautenburg.
Rolf Apitzsch (b. 1943) is a German amateur astronomer who started serious astronomical work after his retirement in 1999. His work at his Wildberg observatory is dedicated to NEO follow-up and detection of new minor planets. The name was suggested by the first discoverer.
NOTE: some special characters may not display properly (any characters within {} are an attempt to place the proper accent above a character)
Reference: 20090209/MPCPages.arcLast Updated: 2009-02-11

[ show close-approach data ]
Alternate Designations
 1991 TL6 = 1999 FL47 
Ephemeris | Orbit Diagram | Orbital Elements | Physical Parameters | Discovery Circumstances | Close-Approach Data ]
ABOUT SSD CREDITS/AWARDS PRIVACY/COPYRIGHT GLOSSARY LINKS
FirstGov 2013-Jun-19 04:35 UT
(server date/time)  
NASA Home Page
Site Manager:   Donald K. Yeomans
Webmaster  Alan B. Chamberlin